Hamilton, OH

11:10 PM EDT on April 23, 2017 (GMT -0400)
Butler County Regional

Weather History for KHAO - March, 2012

Change the Weather History Date:

Tuesday, March 6, 2012

  Actual Average (KLUK) Record (KLUK)
Temperature  
Mean Temperature 46 °F -  
Max Temperature 64 °F 49 °F 76 °F (1973)
Min Temperature 27 °F 31 °F 3 °F (2015)
Degree Days  
Heating Degree Days 20    
Moisture  
Dew Point 23 °F    
Average Humidity 44    
Maximum Humidity 75    
Minimum Humidity 21    
Precipitation  
Precipitation 0.00 in - - ()
Sea Level Pressure  
Sea Level Pressure 30.36 in    
Wind  
Wind Speed 5 mph (SSE)    
Max Wind Speed 14 mph    
Max Gust Speed 20 mph    
Visibility 10 miles    
Events      
Averages and records for this station are not official NWS values.
T = Trace of Precipitation, MM = Missing Value Source: NWS Daily Summary

Daily Weather History Graph

Daily Weather History Graph

Search for Another Location

Airport or City:

Trip Planner

Search our weather history database for the weather conditions in past years. The results will help you decide how hot, cold, wet, or windy it might be!

Date:

Astronomy

Mar. 06, 2012 Rise Set
Actual Time 7:02 AM EST 6:36 PM EST
Civil Twilight 6:35 AM EST 7:03 PM EST
Nautical Twilight 6:04 AM EST 7:34 PM EST
Astronomical Twilight 5:33 AM EST 8:05 PM EST
Moon 5:02 PM EST (3/6) 5:37 AM EST (3/6)
Length of Visible Light 12h 27m
Length of Day
11h 33m
Waxing Gibbous, 96% of the Moon is Illuminated
Mar 6
Waxing Gibbous
Mar 8
Full
Mar 14
Last Quarter
Mar 22
New
Mar 30
First Quarter

Hourly Weather History & Observations

Time (EST) Temp. Windchill Dew Point Humidity Pressure Visibility Wind Dir Wind Speed Gust Speed Precip Events Conditions
12:53 AM 28.0 °F 24.2 °F 21.0 °F 75% 30.48 in 10.0 mi SSE 3.5 mph - N/A   Clear
1:53 AM 27.0 °F 23.0 °F 19.0 °F 72% 30.47 in 9.0 mi ESE 3.5 mph - N/A   Clear
2:53 AM 30.0 °F 25.2 °F 21.0 °F 69% 30.44 in 10.0 mi South 4.6 mph - N/A   Clear
3:53 AM 30.0 °F - 19.9 °F 66% 30.45 in 10.0 mi Calm Calm - N/A   Clear
4:53 AM 30.0 °F - 19.9 °F 66% 30.46 in 10.0 mi Calm Calm - N/A   Clear
5:53 AM 30.0 °F 25.2 °F 19.9 °F 66% 30.44 in 10.0 mi SSE 4.6 mph - N/A   Clear
6:53 AM 30.0 °F 23.2 °F 19.9 °F 66% 30.44 in 10.0 mi SSE 6.9 mph - N/A   Clear
7:53 AM 32.0 °F 28.7 °F 19.9 °F 61% 30.44 in 10.0 mi SSE 3.5 mph - N/A   Clear
8:53 AM 35.1 °F 29.3 °F 21.0 °F 57% 30.43 in 10.0 mi SSE 6.9 mph - N/A   Clear
9:53 AM 39.9 °F 35.1 °F 21.0 °F 47% 30.42 in 10.0 mi South 6.9 mph - N/A   Clear
10:53 AM 46.9 °F - 21.0 °F 36% 30.40 in 10.0 mi Variable 5.8 mph - N/A   Clear
11:53 AM 51.1 °F - 23.0 °F 33% 30.39 in 10.0 mi South 8.1 mph 16.1 mph N/A   Clear
12:53 PM 55.9 °F - 21.9 °F 27% 30.35 in 10.0 mi South 10.4 mph - N/A   Clear
1:53 PM 60.1 °F - 19.9 °F 21% 30.31 in 10.0 mi SSW 10.4 mph 19.6 mph N/A   Clear
2:53 PM 63.0 °F - 21.9 °F 21% 30.28 in 10.0 mi South 13.8 mph 18.4 mph N/A   Clear
3:53 PM 64.9 °F - 25.0 °F 22% 30.26 in 10.0 mi SSW 11.5 mph - N/A   Clear
4:53 PM 64.9 °F - 26.1 °F 23% 30.26 in 10.0 mi South 8.1 mph - N/A   Clear
6:53 PM 59.0 °F - 28.0 °F 31% 30.24 in 10.0 mi Variable 6.9 mph - N/A   Clear
7:53 PM 57.0 °F - 28.9 °F 34% 30.24 in 10.0 mi SSE 5.8 mph - N/A   Clear
8:53 PM 57.0 °F - 28.9 °F 34% 30.25 in 10.0 mi South 4.6 mph - N/A   Clear
9:53 PM 55.9 °F - 27.0 °F 33% 30.25 in 10.0 mi SSE 3.5 mph - N/A   Clear
10:53 PM 55.0 °F - 25.0 °F 31% 30.25 in 10.0 mi South 4.6 mph - N/A   Clear
11:53 PM 57.0 °F - 19.0 °F 23% 30.25 in 10.0 mi South 8.1 mph 17.3 mph N/A   Clear